Lampasas, TX

6:39 AM CST on February 28, 2017 (GMT -0600)
Lampasas

Weather History for KLZZ - October, 2013

Change the Weather History Date:

Wednesday, October 30, 2013

  Actual Average (KGRK) Record (KGRK)
Temperature  
Mean Temperature 73 °F -  
Max Temperature 76 °F 72 °F 86 °F (2016)
Min Temperature 70 °F 54 °F 44 °F (2011)
Cooling Degree Days 8    
Growing Degree Days 23 (Base 50)    
Moisture  
Dew Point 71 °F    
Average Humidity 92    
Maximum Humidity 97    
Minimum Humidity 86    
Precipitation  
Precipitation 0.10 in - - ()
Sea Level Pressure  
Sea Level Pressure 29.94 in    
Wind  
Wind Speed 5 mph (SSE)    
Max Wind Speed 13 mph    
Max Gust Speed 17 mph    
Visibility 8 miles    
Events Fog , Rain , Thunderstorm    
Averages and records for this station are not official NWS values.
T = Trace of Precipitation, MM = Missing Value Source: NWS Daily Summary

Daily Weather History Graph

Daily Weather History Graph

Search for Another Location

Airport or City:

Trip Planner

Search our weather history database for the weather conditions in past years. The results will help you decide how hot, cold, wet, or windy it might be!

Date:

Astronomy

Oct. 30, 2013 Rise Set
Actual Time 7:46 AM CDT 6:45 PM CDT
Civil Twilight 7:21 AM CDT 7:10 PM CDT
Nautical Twilight 6:53 AM CDT 7:39 PM CDT
Astronomical Twilight 6:25 AM CDT 8:07 PM CDT
Moon 3:52 AM CDT (10/30) 4:18 PM CDT (10/30)
Length of Visible Light 11h 48m
Length of Day
10h 58m
Waning Crescent, 17% of the Moon is Illuminated
Oct 30
Waning Crescent
Nov 3
New
Nov 9
First Quarter
Nov 17
Full
Nov 25
Last Quarter

Hourly Weather History & Observations

Time (CDT) Temp. Dew Point Humidity Pressure Visibility Wind Dir Wind Speed Gust Speed Precip Events Conditions
12:15 AM 71.8 °F 68.2 °F 88% 30.04 in 10.0 mi SSE 10.4 mph - N/A   Light Drizzle
12:35 AM 71.8 °F 68.2 °F 88% 30.04 in 10.0 mi SSE 6.9 mph - N/A   Scattered Clouds
12:55 AM 71.8 °F 68.2 °F 88% 30.04 in 10.0 mi SSE 8.1 mph - N/A   Scattered Clouds
1:15 AM 71.8 °F 68.2 °F 88% 30.04 in 10.0 mi South 8.1 mph - N/A Rain Light Rain
1:35 AM 71.1 °F 67.5 °F 88% 30.04 in 10.0 mi SSE 8.1 mph - N/A Rain Light Rain
1:55 AM 70.7 °F 68.0 °F 91% 29.99 in 10.0 mi ESE 12.7 mph - N/A Rain Rain
2:15 AM 70.7 °F 68.5 °F 93% 30.01 in 10.0 mi SSE 9.2 mph 16.1 mph 0.01 in Rain Light Rain
2:35 AM 70.7 °F 68.9 °F 94% 30.02 in 10.0 mi SSE 4.6 mph - 0.01 in Thunderstorm Thunderstorm
2:55 AM 70.7 °F 68.9 °F 94% 30.02 in 7.0 mi SSE 8.1 mph - 0.02 in Rain , Thunderstorm Light Thunderstorms and Rain
3:15 AM 70.7 °F 68.9 °F 94% 30.01 in 10.0 mi SSE 8.1 mph - 0.01 in Rain , Thunderstorm Light Thunderstorms and Rain
3:35 AM 70.7 °F 68.9 °F 94% 30.01 in 10.0 mi SSE 8.1 mph - 0.01 in Rain , Thunderstorm Light Thunderstorms and Rain
3:55 AM 70.7 °F 68.9 °F 94% 30.02 in 10.0 mi Calm Calm - 0.02 in Thunderstorm Overcast
4:15 AM 70.7 °F 68.9 °F 94% 30.01 in 10.0 mi Calm Calm - N/A   Overcast
4:35 AM 70.7 °F 69.1 °F 95% 30.01 in 7.0 mi North 3.5 mph - 0.01 in   Overcast
4:55 AM 70.7 °F 69.3 °F 95% 29.99 in 5.0 mi NE 3.5 mph - 0.01 in Rain Light Rain
5:15 AM 70.7 °F 69.3 °F 95% 29.99 in 5.0 mi East 4.6 mph - 0.01 in Rain Rain
5:35 AM 70.7 °F 69.3 °F 95% 29.98 in 3.0 mi East 4.6 mph - 0.01 in   Drizzle
5:55 AM 70.7 °F 69.4 °F 96% 29.97 in 3.0 mi East 4.6 mph - 0.02 in   Light Drizzle
6:15 AM 70.7 °F 69.4 °F 96% 29.96 in 3.0 mi East 5.8 mph - N/A Thunderstorm Overcast
6:35 AM 70.7 °F 69.6 °F 96% 29.97 in 2.5 mi Calm Calm - 0.01 in   Overcast
6:55 AM 70.7 °F 69.8 °F 97% 29.97 in 2.0 mi Calm Calm - 0.01 in   Light Drizzle
7:15 AM 70.7 °F 69.8 °F 97% 29.97 in 1.2 mi Calm Calm - N/A   Overcast
7:35 AM 70.7 °F 69.8 °F 97% 29.96 in 0.8 mi East 3.5 mph - N/A   Overcast
7:55 AM 70.7 °F 69.8 °F 97% 29.96 in 0.5 mi ESE 4.6 mph - N/A Fog Fog
8:15 AM 70.7 °F 69.8 °F 97% 29.96 in 1.0 mi SE 4.6 mph - N/A   Overcast
8:35 AM 70.7 °F 69.8 °F 97% 29.96 in 1.0 mi SE 5.8 mph - N/A   Overcast
8:55 AM 70.7 °F 69.8 °F 97% 29.95 in 1.0 mi SE 6.9 mph - N/A   Overcast
9:15 AM 71.8 °F 70.9 °F 97% 29.97 in 4.0 mi Calm Calm - N/A   Overcast
9:35 AM 73.0 °F 72.1 °F 97% 29.96 in 7.0 mi SE 4.6 mph - N/A   Overcast
9:55 AM 74.3 °F 73.4 °F 97% 29.96 in 10.0 mi SE 5.8 mph - N/A   Overcast
10:15 AM 75.6 °F 74.5 °F 96% 29.97 in 10.0 mi South 5.8 mph - N/A   Overcast
10:35 AM 75.6 °F 73.8 °F 94% 29.96 in 10.0 mi SSE 8.1 mph 16.1 mph N/A   Overcast
10:55 AM 75.6 °F 72.5 °F 90% 29.96 in 10.0 mi South 6.9 mph - N/A   Overcast
11:15 AM 76.6 °F 72.9 °F 88% 29.95 in 10.0 mi South 10.4 mph 17.3 mph N/A   Overcast
11:35 AM 76.1 °F 71.8 °F 86% 29.96 in 10.0 mi South 9.2 mph - N/A   Overcast
11:55 AM 75.6 °F 71.6 °F 87% 29.97 in 10.0 mi South 8.1 mph - N/A   Overcast
12:15 PM 75.6 °F 71.6 °F 87% 29.97 in 10.0 mi South 9.2 mph - N/A   Overcast
12:35 PM 75.6 °F 71.8 °F 88% 29.96 in 10.0 mi South 6.9 mph - N/A   Overcast
12:55 PM 75.6 °F 72.0 °F 89% 29.96 in 10.0 mi South 4.6 mph - N/A Rain Rain
1:15 PM 75.6 °F 73.0 °F 92% 29.96 in 10.0 mi SSW 3.5 mph - 0.01 in Rain Light Rain
1:35 PM 75.6 °F 73.4 °F 93% 29.95 in 10.0 mi SSW 3.5 mph - 0.01 in   Mostly Cloudy
1:55 PM 75.6 °F 73.4 °F 93% 29.94 in 10.0 mi SSW 3.5 mph - 0.01 in   Overcast
2:15 PM 75.6 °F 73.4 °F 93% 29.92 in - Calm Calm - N/A   Unknown
2:35 PM 75.6 °F 73.2 °F 92% 29.90 in 10.0 mi Calm Calm - N/A   Scattered Clouds
2:55 PM 75.6 °F 72.5 °F 90% 29.89 in 10.0 mi Calm Calm - N/A   Scattered Clouds
3:15 PM 75.6 °F 72.1 °F 89% 29.89 in 10.0 mi Calm Calm - N/A   Clear
3:35 PM 75.6 °F 71.8 °F 88% 29.89 in 10.0 mi Calm Calm - 0.01 in   Scattered Clouds
3:55 PM 76.1 °F 72.1 °F 87% 29.88 in 10.0 mi NW 4.6 mph - 0.01 in   Overcast
4:15 PM 75.6 °F 71.8 °F 88% 29.87 in 10.0 mi WNW 3.5 mph - N/A   Overcast
4:35 PM 75.6 °F 71.6 °F 87% 29.86 in 10.0 mi West 4.6 mph - N/A   Mostly Cloudy
4:55 PM 75.9 °F 72.0 °F 87% 29.85 in 10.0 mi West 3.5 mph - N/A   Clear
5:15 PM 75.6 °F 71.6 °F 87% 29.85 in 10.0 mi West 3.5 mph - N/A   Clear
5:35 PM 75.6 °F 71.8 °F 88% 29.85 in 10.0 mi Calm Calm - N/A Rain Light Rain
5:55 PM 75.6 °F 72.1 °F 89% 29.85 in 10.0 mi Calm Calm - N/A   Clear
6:15 PM 75.6 °F 72.9 °F 91% 29.85 in 10.0 mi Calm Calm - N/A   Scattered Clouds
7:55 PM 73.0 °F 71.6 °F 95% 29.85 in 10.0 mi Calm Calm - N/A   Overcast
8:15 PM 73.0 °F 71.6 °F 95% 29.85 in 10.0 mi Calm Calm - N/A   Overcast
8:35 PM 73.0 °F 71.6 °F 95% 29.85 in 10.0 mi Calm Calm - N/A   Overcast
8:55 PM 73.0 °F 71.2 °F 94% 29.86 in 10.0 mi Calm Calm - N/A   Overcast
9:15 PM 73.0 °F 71.2 °F 94% 29.86 in 10.0 mi Calm Calm - N/A Thunderstorm Overcast
9:35 PM 73.0 °F 70.7 °F 92% 29.84 in 10.0 mi Calm Calm - N/A   Overcast
9:55 PM 73.0 °F 70.7 °F 92% 29.84 in 10.0 mi Calm Calm - N/A   Overcast
10:15 PM 71.8 °F 69.8 °F 93% 29.85 in 10.0 mi Calm Calm - N/A   Mostly Cloudy
10:35 PM 70.9 °F 69.1 °F 94% 29.85 in 10.0 mi Calm Calm - N/A   Overcast
10:55 PM 70.7 °F 69.1 °F 95% 29.85 in 10.0 mi Calm Calm - N/A   Overcast
11:15 PM 70.7 °F 69.1 °F 95% 29.83 in 10.0 mi Calm Calm - N/A   Mostly Cloudy
11:35 PM 70.7 °F 69.1 °F 95% 29.83 in 7.0 mi Calm Calm - N/A   Overcast
11:55 PM 70.7 °F 69.3 °F 95% 29.83 in 7.0 mi Calm Calm - N/A   Overcast